Tracking 18945 objects as of 19-Jan-2018
HD Live streaming from Space Station
objects crossing your sky now

INTELSAT 702

Track INTELSAT 702 now!
INTELSAT 702 is classified as:


NORAD ID: 23124
Int'l Code: 1994-034A
Perigee: 36,142.4 km
Apogee: 36,199.7 km
Inclination: 4.9 °
Period: 1,455.4 minutes
Semi major axis: 42542 km
RCS: 25.1188 m2 (large)
Launch date: June 17, 1994
Source: International Telecommunications Satellite Organization (ITSO)
Launch site: FRENCH GUIANA (FRGUI)

42 C-band, 24 Ku-band; broadcasting, business services, direct-to-home TV broadcasting, telecommunications, VSATnetworks; Pacific Ocean region.
aabbcc
Your satellite tracking list
Your tracking list is empty




NASA's NSSDC Master Catalog

Two Line Element Set (TLE):
1 23124U 94034A   18018.30185068 -.00000065 +00000-0 +00000-0 0  9993
2 23124 004.9381 064.1862 0006737 286.4768 073.4482 00.98940821100493
Source of the keplerian elements: AFSPC